[[{"header":{"parameterUnit":"m.s-1","parameterCategory":1,"la1":30.2992,"la2":30.254,"lo1":-89.0895,"lo2":-89.0443,"dy":0.0025,"dx":0.0025,"nx":19,"ny":19,"refTime":"2026-05-08T03:00:00:Z","depth":0,"parameterNumber":2,"parameterNumberName":"U-component_of_WINDS"},"data":[0,0,0,-0.1911,-0.191,-0.1821,-0.182,-0.1719,-0.1719,0,0,0,0,0,0,0,0,0,0,0,-0.1945,-0.1944,-0.1911,-0.1909,-0.1821,-0.182,-0.1719,-0.1719,0,0,0,0,0,0,0,0,0,0,0,-0.1945,-0.1944,-0.1944,-0.1909,-0.1821,-0.182,-0.172,-0.1782,0,0,0,0,0,0,0,0,0,0,-0.1866,-0.1904,-0.1945,-0.1944,-0.1909,-0.1821,-0.182,-0.1785,-0.1778,-0.1765,0,-0.1754,0,-0.1735,-0.1713,-0.1712,0,0,0,-0.1904,-0.191,-0.1879,-0.1944,-0.1908,-0.1821,-0.1859,-0.1781,-0.1774,-0.1756,-0.1753,-0.1749,-0.1733,-0.1712,-0.1712,-0.1651,-0.1651,0,0,-0.1909,-0.1933,-0.1885,-0.1875,-0.1889,-0.1862,-0.1856,-0.1776,-0.1775,-0.1752,-0.1746,-0.1732,-0.1711,-0.1711,-0.1651,-0.1651,0,0,0,-0.1927,-0.1936,-0.1908,-0.1879,-0.1862,-0.186,-0.1853,-0.1778,-0.1767,-0.1745,-0.173,-0.1711,-0.171,-0.1651,-0.1651,-0.1672,0,0,0,-0.1929,-0.1947,-0.191,-0.1924,-0.1864,-0.1819,-0.1857,-0.1772,-0.1762,-0.1731,-0.1711,-0.1709,-0.1651,-0.1651,-0.1671,-0.1678,0,0,0,-0.1948,-0.1949,-0.1938,-0.1925,-0.1888,-0.182,-0.1803,-0.177,-0.1754,-0.1712,-0.1709,-0.1651,-0.1651,-0.1671,-0.1677,-0.1668,0,0,0,-0.1975,-0.1958,-0.1939,-0.1915,-0.1889,-0.1833,-0.1804,-0.1761,-0.1728,-0.171,-0.1651,-0.1651,-0.1671,-0.1676,-0.1668,-0.1665,-0.1667,0,0,-0.1967,-0.1958,-0.1942,-0.1922,-0.1876,-0.1845,-0.1802,-0.175,-0.1724,-0.1677,-0.1675,-0.1671,-0.1677,-0.1668,-0.1666,-0.1667,0,0,0,-0.1947,-0.1936,-0.1919,-0.1888,-0.1847,-0.1813,-0.1765,-0.1745,-0.1704,-0.1705,-0.1666,-0.1668,-0.1662,-0.166,-0.1661,-0.1654,-0.1651,-0.1651,-0.1651,-0.197,-0.1938,-0.1909,-0.1867,-0.1838,-0.1788,-0.1762,-0.1728,-0.1704,-0.1696,-0.1681,-0.1684,-0.1682,-0.1682,-0.1676,-0.1678,-0.1678,-0.1678,-0.1678,-0.1955,-0.1933,-0.1903,-0.1864,-0.1831,-0.1799,-0.1751,-0.1736,-0.1701,-0.1692,-0.1685,-0.1677,-0.1684,-0.1677,-0.1679,-0.1679,-0.1679,-0.1679,-0.1679,-0.1965,-0.195,-0.1926,-0.1879,-0.1846,-0.1805,-0.1773,-0.1744,-0.1717,-0.1711,-0.1692,-0.1692,-0.1688,-0.1704,-0.1704,-0.1704,-0.1704,-0.1704,-0.1704,-0.1985,-0.1958,-0.1934,-0.189,-0.1867,-0.1833,-0.1784,-0.1761,-0.1728,-0.1709,-0.1709,-0.1687,-0.1691,-0.1693,-0.1704,-0.1704,-0.1704,-0.1704,-0.1704,-0.1981,-0.1977,-0.194,-0.1917,-0.1863,-0.1833,-0.1797,-0.1753,-0.1729,-0.1715,-0.1694,-0.1702,-0.1691,-0.169,-0.1691,-0.1701,-0.1701,-0.1701,-0.1701,-0.1989,-0.1981,-0.1937,-0.1902,-0.1864,-0.1828,-0.1789,-0.1751,-0.1712,-0.1695,-0.169,-0.1689,-0.169,-0.1678,-0.1677,-0.1678,-0.1684,-0.1684,-0.1684,-0.1985,-0.1972,-0.1943,-0.1903,-0.1859,-0.1823,-0.1784,-0.1746,-0.1701,-0.1683,-0.1682,-0.1683,-0.1681,-0.1682,-0.1663,-0.1663,-0.1663,0,0]},{"header":{"parameterUnit":"m.s-1","parameterCategory":1,"la1":30.2992,"la2":30.254,"lo1":-89.0895,"lo2":-89.0443,"dy":0.0025,"dx":0.0025,"nx":19,"ny":19,"refTime":"2026-05-08T03:00:00:Z","depth":0,"parameterNumber":3,"parameterNumberName":"V-component_of_WINDS"},"data":[0,0,0,4.1133,4.1133,4.1111,4.1111,4.1087,4.1087,0,0,0,0,0,0,0,0,0,0,0,4.1144,4.1144,4.1133,4.1133,4.1111,4.1111,4.1087,4.1087,0,0,0,0,0,0,0,0,0,0,0,4.1144,4.1144,4.1144,4.1133,4.1111,4.1111,4.1087,4.1102,0,0,0,0,0,0,0,0,0,0,4.1122,4.1136,4.1144,4.1144,4.1133,4.1111,4.1111,4.1103,4.1101,4.11,0,4.1101,0,4.1094,4.1086,4.1086,0,0,0,4.1129,4.1138,4.1128,4.1144,4.1133,4.1111,4.112,4.1102,4.11,4.1098,4.11,4.1099,4.1094,4.1086,4.1086,4.1094,4.1094,0,0,4.1131,4.1142,4.113,4.1128,4.1133,4.1121,4.1119,4.1101,4.1104,4.11,4.1099,4.1093,4.1086,4.1086,4.1093,4.1094,0,0,0,4.1136,4.1143,4.1134,4.1129,4.1124,4.112,4.1118,4.1104,4.1101,4.1098,4.1093,4.1086,4.1086,4.1093,4.1094,4.1115,0,0,0,4.1137,4.1146,4.1134,4.1141,4.1125,4.1114,4.1123,4.1102,4.1099,4.1093,4.1086,4.1085,4.1093,4.1093,4.1114,4.1124,0,0,0,4.1144,4.1147,4.1145,4.1142,4.1133,4.1115,4.1109,4.1101,4.1096,4.1086,4.1085,4.1093,4.1093,4.1113,4.1122,4.1129,0,0,0,4.1154,4.1164,4.1146,4.1154,4.1133,4.1129,4.1109,4.1105,4.1099,4.1086,4.1093,4.1094,4.1113,4.1121,4.1129,4.1138,4.1143,0,0,4.1172,4.1166,4.117,4.1154,4.1156,4.1131,4.1135,4.1118,4.1106,4.1098,4.1098,4.1115,4.1122,4.1129,4.1167,4.1172,0,0,0,4.118,4.1183,4.1181,4.1177,4.1165,4.1156,4.1137,4.1131,4.1124,4.1105,4.1119,4.1123,4.1127,4.1131,4.1134,4.1137,4.1096,4.1096,4.1096,4.1222,4.1207,4.1214,4.1197,4.1193,4.1174,4.1169,4.1157,4.1142,4.1146,4.1144,4.1169,4.1174,4.1177,4.118,4.1147,4.1147,4.1147,4.1147,4.1248,4.125,4.1232,4.1232,4.1216,4.1215,4.1197,4.1187,4.1183,4.1169,4.1172,4.1158,4.1182,4.1184,4.1149,4.1149,4.1148,4.1148,4.1148,4.1274,4.1273,4.1266,4.1259,4.1255,4.1237,4.1235,4.122,4.1205,4.1208,4.1204,4.1204,4.1202,4.1207,4.1208,4.1208,4.1208,4.1208,4.1208,4.1304,4.1296,4.1296,4.1286,4.1281,4.1274,4.1256,4.125,4.1241,4.123,4.123,4.1215,4.1187,4.118,4.1209,4.1209,4.1209,4.1209,4.1208,4.1336,4.1327,4.1328,4.1324,4.131,4.1308,4.1289,4.128,4.1274,4.1273,4.1258,4.1239,4.1231,4.1228,4.1223,4.1261,4.1261,4.1261,4.1261,4.1359,4.1354,4.1352,4.1347,4.1339,4.1323,4.1325,4.1311,4.1294,4.1289,4.1281,4.1273,4.127,4.1264,4.126,4.1255,4.13,4.13,4.13,4.1378,4.1372,4.1376,4.1362,4.135,4.1341,4.1342,4.1335,4.1314,4.1301,4.1285,4.1283,4.1269,4.1265,4.1252,4.1247,4.1236,0,0]}]]